Regional Weather Roundup
Issued by NWS

Home | Current Version | Previous Version | Graphics & Text | Print | Product List | Glossary On
Versions: 1 2 3 4 5 6 7 8 9 10 11 12 13 14 15 16 17 18 19 20 21 22 23 24 25 26 27 28 29 30 31 32 33 34 35 36 37 38 39 40 41 42 43 44 45 46 47 48 49 50
000
ASUS43 KMKX 311200
RWRWI

WISCONSIN REGIONAL WEATHER ROUNDUP
NATIONAL WEATHER SERVICE MILWAUKEE/SULLIVAN WI
700 AM CDT WED AUG 31 2016

NOTE: "FAIR" INDICATES FEW OR NO CLOUDS BELOW 12,000 FEET WITH NO
SIGNIFICANT WEATHER AND/OR OBSTRUCTIONS TO VISIBILITY.

WIZ001-002-006>008-014>016-023>028-311300-
NORTHWEST WISCONSIN

CITY           SKY/WX    TMP DP  RH WIND       PRES   REMARKS
SUPERIOR ARPT  CLEAR     44  44 100 SW3       30.20S
ASHLAND        CLEAR     48  48 100 W3        30.20R
6HR MIN TEMP:  46; 6HR MAX TEMP:  58;

HAYWARD        FOG       46  45  96 CALM      30.21R VSB 1/4
6HR MIN TEMP:  45; 6HR MAX TEMP:  51;

SIREN          CLEAR     47  45  95 CALM      30.21S
CUMBERLAND     CLEAR     50  50 100 N3        30.20S
RICE LAKE      FOG       49  47  96 CALM      30.21R VSB 1/4
CHETEK         NOT AVBL
LADYSMITH      CLEAR     53  51  94 N3        30.20R
EAU CLAIRE     NOT AVBL
MENOMONIE      CLEAR     53  53  98 CALM      30.19R
6HR MIN TEMP:  53; 6HR MAX TEMP:  60;

NEW RICHMOND   PTCLDY    50  50 100 CALM      30.20S FOG
OSCEOLA        FOG       52  52 100 CALM      30.23S VSB<1/4
$$

WIZ003>005-009-010-017-018-311300-
NORTH CENTRAL WISCONSIN

CITY           SKY/WX    TMP DP  RH WIND       PRES   REMARKS
MANITOWISH WTR NOT AVBL
ARBOR VITAE    CLEAR     47  46  95 CALM      30.17S
WOODRUFF       CLEAR     47  46  95 CALM      30.17S
RHINELANDER    CLEAR     54  54 100 CALM      30.17S
6HR MIN TEMP:  45; 6HR MAX TEMP:  54;

EAGLE RIVER    CLEAR     44  44 100 CALM      30.17R
LAND O LAKES   CLEAR     42  42 100 CALM      30.19R FOG
PHILLIPS       CLEAR     46  46 100 CALM      30.18R
6HR MIN TEMP:  46; 6HR MAX TEMP:  51;

TOMAHAWK       CLEAR     40  40  97 CALM      30.18S
MEDFORD        FOG       44  44 100 CALM      30.17R VSB 1/4
MERRILL        CLEAR     44  44 100 CALM      30.18R
6HR MIN TEMP:  44; 6HR MAX TEMP:  50;

$$

WIZ029-030-035-036-043>047-311300-
CENTRAL WISCONSIN

CITY           SKY/WX    TMP DP  RH WIND       PRES   REMARKS
WAUSAU         PTCLDY    53  51  93 NW5       30.15R
6HR MIN TEMP:  52; 6HR MAX TEMP:  57;

MOSINEE        CLEAR     52  52 100 NW5       30.17R
MARSHFIELD     CLEAR     53  49  86 NW5       30.16R
6HR MIN TEMP:  51; 6HR MAX TEMP:  60;

STEVENS POINT  CLEAR     48  48  97 CALM      30.16R
WAUPACA        PTCLDY    55  54  97 NW3       30.14S
WAUTOMA        CLEAR     52  51  97 CALM      30.15R
6HR MIN TEMP:  51; 6HR MAX TEMP:  65;

WISC RAPIDS    CLEAR     54  52  93 N5        30.17R
6HR MIN TEMP:  52; 6HR MAX TEMP:  61;

CAMP DOUGLAS   NOT AVBL
$$

WIZ011>013-019>022-031-037>040-048>050-311300-
NORTHEAST WISCONSIN

CITY           SKY/WX    TMP DP  RH WIND       PRES   REMARKS
ANTIGO         CLEAR     46  46 100 CALM      30.17R
SHAWANO        CLEAR     55  52  92 CALM      30.14S
OCONTO         NOT AVBL
STURGEON BAY   CLEAR     61  57  87 NW6       30.12R
6HR MIN TEMP:  57; 6HR MAX TEMP:  64;

GREEN BAY      CLEAR     55  55 100 NW3       30.12R
6HR MIN TEMP:  54; 6HR MAX TEMP:  65;

MANITOWOC      NOT AVBL
APPLETON       MOCLDY    57  55  94 NW7       30.12R
CLINTONVILLE   CLEAR     55  50  82 N5        30.14R
OSHKOSH        PTCLDY    60  57  89 N6        30.12R
6HR MIN TEMP:  59; 6HR MAX TEMP:  70;

$$

WIZ032>034-041-042-053>061-311300-
SOUTHWEST WISCONSIN

CITY           SKY/WX    TMP DP  RH WIND       PRES   REMARKS
LA CROSSE      CLEAR     58  57  97 N6        30.16R
6HR MIN TEMP:  58; 6HR MAX TEMP:  64;

SPARTA         FOG       48  48 100 CALM      30.17R VSB 1/4
VIROQUA        CLEAR     55  53  95 CALM      30.17R
6HR MIN TEMP:  55; 6HR MAX TEMP:  63;

BOSCOBEL       CLOUDY    56  55  97 CALM      30.15R
6HR MIN TEMP:  55; 6HR MAX TEMP:  64;

PRAIRIE DU CHI PTCLDY    58  57  94 CALM      30.14R
PLATTEVILLE    PTCLDY    61  61 100 N8        30.13R
$$

WIZ056-057-062-063-064-067-068-311300-
SOUTH CENTRAL WISCONSIN

CITY           SKY/WX    TMP DP  RH WIND       PRES   REMARKS
REEDSBURG      NOT AVBL
BARABOO/DELLS  CLOUDY    57  53  86 CALM      30.14S
LONE ROCK      NOT AVBL
MINERAL POINT  CLEAR     61  59  94 N7        30.13R
MADISON        MOCLDY    63  60  90 N6        30.12R
6HR MIN TEMP:  62; 6HR MAX TEMP:  68;

MIDDLETON      CLOUDY    64  63  97 N6        30.13R
WATERTOWN      CLOUDY    61  61  99 N5        30.10R
MONROE         CLOUDY    63  61  94 N7        30.12R
JANESVILLE     PTCLDY    66  64  94 CALM      30.10R
$$

WIZ051-052-058>065-066-070>072-311300-
SOUTHEAST WISCONSIN

CITY           SKY/WX    TMP DP  RH WIND       PRES   REMARKS
MILWAUKEE      MOCLDY    66  57  72 N8        30.09R
6HR MIN TEMP:  65; 6HR MAX TEMP:  73;

WAUKESHA       CLEAR     61  55  82 N6        30.12R
MILWAUKEE/TIMM CLOUDY    61  54  77 N8        30.09S
RACINE         PTCLDY    64  57  78 N15       30.09R
6HR MIN TEMP:  64; 6HR MAX TEMP:  71;

BURLINGTON     CLOUDY    60  57  91 N6        30.09R
KENOSHA        PTCLDY    63  58  83 N8        30.08R
6HR MIN TEMP:  63; 6HR MAX TEMP:  71;

FOND DU LAC    CLEAR     60  57  89 N6        30.12R
6HR MIN TEMP:  59; 6HR MAX TEMP:  71;

SHEBOYGAN      CLEAR     59  53  80 NW7       30.11R
6HR MIN TEMP:  58; 6HR MAX TEMP:  68;

WEST BEND      CLEAR     57  54  88 N5        30.11R
JUNEAU         CLOUDY    60  55  83 N6        30.12R
$$

LSZ147-162-311300-
LAKE SUPERIOR

STATION/POSITION TIME  TEMP    WIND        PRES    WAVE
                       AIR SEA DIR/SP/G            HT/PER
                 (UTC) (F)     (DEG/KT/KT) (MB)    (FT/S)
W MID LAKE BUOY  1050   65 68  330/  6/  8 1020.5R   1
DEVILS ISLAND    1100   64     340/  9/ 10 1021.8R
PORT WING        1100   53     150/  3/  5 1022.4R
SAXON HARBOR     1100   54     190/  5/  7 1021.3
$$

LMZ867-665-643>646-311300-
LAKE MICHIGAN

STATION/POSITION TIME  TEMP    WIND        PRES    WAVE
                       AIR SEA DIR/SP/G            HT/PER
                 (UTC) (F)     (DEG/KT/KT) (MB)    (FT/S)
CHAMBERS ISLAND  1100   62     310/  5/  8 1019.3S
N MID LAKE BUOY  1050   66 71  350/ 12/ 16 1018.0R   2/ 4
NORTHPORT PIER   1100   66     340/  9/ 11 1019.0S
SISTER BAY       1052   64      20/  6/  9   N/A
ALGOMA LAKESHORE 1115          310/  4/  6   N/A
KEWAUNEE LAKESHO 1100   58     310/  4/  5 1018.6S
SHEBOYGAN LAKESH 1100   62     340/ 13/ 16 1018.3R
PORT WASHINGTON  1100   63     330/  5/  9 1019.3S
ATWATER BUOY     1100   64     350/ 12/ 14   N/A
MILWAUKEE LAKESH 1110   65     340/ 14/ 17   N/A
S MID LAKE BUOY  1050   72 75   20/ 17/ 19 1015.5R   3/ 4
KENOSHA   LAKESH 1100   66     340/ 11/ 16 1017.3S
$$

TC  - TEMPERATURE IN CELSIUS
VSB - VISIBILITY IN STATUTE MILES
WCI - WIND CHILL INDEX
HX  - HEAT INDEX




USA.gov is the U.S. government's official web portal to all federal, state and local government web resources and services.